Location: Armidale
(30.5016°S, 151.6662°E)
Time: 02:28:57
(UTC+10:00)

BEESAT 3 - Pass Details

Date: 02 August 2021
Orbit: 484 x 509 km, 64.9° (Epoch: 18 September)

Event Time Altitude Azimuth Distance (km) Brightness Sun altitude
Rises 17:43:09 0° 332° (NNW) 2,599 ? -5.5°
Reaches altitude 10° 17:45:18 10° 331° (NNW) 1,719 ? -5.9°
Maximum altitude 17:49:09 81° 243° (WSW) 520 ? -6.7°
Drops below altitude 10° 17:53:01 10° 155° (SSE) 1,729 ? -7.5°
Enters shadow 17:55:06 - 154° (SSE) 2,578 ? -7.9°
